Regional Weather Roundup
Issued by NWS New Orleans/Baton Rouge, LA

Home | Current Version | Previous Version | Graphics & Text | Print | Product List | Glossary On
Versions: 1 2 3 4 5 6 7 8 9 10 11 12 13 14 15 16 17 18 19 20 21 22 23 24 25 26 27 28 29 30 31 32 33 34 35 36 37 38 39 40 41 42 43 44 45 46 47 48 49 50
204
ASUS44 KLIX 241801
RWRLIX
NEW ORLEANS REGIONAL WEATHER ROUNDUP
NATIONAL WEATHER SERVICE NEW ORLEANS LA
1200 PM CST MON NOV 24 2014

NOTE: "FAIR" INDICATES FEW OR NO CLOUDS BELOW 12,000 FEET WITH NO
      SIGNIFICANT WEATHER AND/OR OBSTRUCTIONS TO VISIBILITY.
      SKY/WX - SKY CONDITION AND SIGNIFICANT WEATHER.
      TMP - AIR TEMPERATURE.     DP    - DEWPOINT TEMPERATURE.
      RH  - RELATIVE HUMIDITY.   PRES  - PRESSURE.
      HI  - HEAT INDEX.          WCI   - WIND CHILL INDEX.

*  THESE STATIONS ARE NOT NWS OR FAA STATIONS AND ARE NOT UNDER
   NWS QUALITY CONTROL.

LAZ038-040-048-061>063-065>067-069-241900-
SOUTHEAST LOUISIANA

CITY           SKY/WX    TMP DP  RH WIND       PRES   REMARKS
N.O. AUDUBON     N/A     70  55  59 MISG        N/A
6HR MIN TEMP:  64; 6HR MAX TEMP:  72;

N.O. INTL ARPT PTSUNNY   69  52  54 NW14      29.89F
6HR MIN TEMP:  65; 6HR MAX TEMP:  69;

N.O. LAKEFRONT SUNNY     63  55  75 NW10      29.89F
6HR MIN TEMP:  60; 6HR MAX TEMP:  65;

N.O. DOWNTOWN*   N/A     70  52  52 N8        29.89F
6HR MIN TEMP:  66; 6HR MAX TEMP:  72;

SLIDELL        SUNNY     71  51  49 VRB7      29.86F
6HR MIN TEMP:  66; 6HR MAX TEMP:  72;

BATON ROUGE    SUNNY     63  45  51 N9        29.93F
6HR MIN TEMP:  57; 6HR MAX TEMP:  64;

BOOTHVILLE     MOSUNNY   72  64  76 NW13      29.88R
6HR MIN TEMP:  66; 6HR MAX TEMP:  74;

BELLE CHASSE   PTSUNNY   71  52  50 N10G17    29.87F
6HR MIN TEMP:  66; 6HR MAX TEMP:  72;

BOGALUSA*        N/A     69  48  46 N12       29.90F
6HR MIN TEMP:  63; 6HR MAX TEMP:  69;

NEW ROADS*       N/A     61  45  54 NW15      29.95F
6HR MIN TEMP:  54; 6HR MAX TEMP:  61;

GONZALES*      NOT AVBL
HAMMOND*       MOSUNNY   68  48  49 NW13      29.91F
HOUMA*         SUNNY     72  54  53 NW16      29.88F
PORT FOURCHON* CLEAR     72  61  68 N9        29.91S

$$

MSZ070-080>082-241900-
SOUTHERN MISSISSIPPI

CITY           SKY/WX    TMP DP  RH WIND       PRES   REMARKS
MCCOMB         SUNNY     62  44  51 NW12      29.92F
6HR MIN TEMP:  56; 6HR MAX TEMP:  62;

GULFPORT       SUNNY     75  56  51 NW9       29.84F
6HR MIN TEMP:  66; 6HR MAX TEMP:  75;

BILOXI         SUNNY     76  56  49 VRB3      29.84F
6HR MIN TEMP:  65; 6HR MAX TEMP:  76;

PASCAGOULA     SUNNY     79  57  46 VRB5      29.83F
6HR MIN TEMP:  66; 6HR MAX TEMP:  79;


$$

COASTAL OBSERVATIONS
LAKE AND NEARSHORE STATIONS

STATION/POSITION TIME  TEMP    WIND        PRES    WAVE
                       AIR SEA DIR/SP/G            HT/PER
                 (UTC) (F)     (DEG/KT/KT) (MB)    (FT/S)
PASCAGOULA       1700   66     230/  7/ 10 1010.1
WAVELAND YACHT   1700   71     320/ 10/ 14 1010.4
GRAND ISLE       1700   69 65  350/  9/ 13 1012.4
SOUTHWEST PASS   1700   71                 1012.1
NEW CANAL        1700   63 57  290/  3/  8 1012.6
SHELL BEACH      1700   64 55  310/ 12/ 13 1011.6

OFFSHORE STATIONS

STATION/POSITION TIME  TEMP    WIND        PRES    WAVE
                       AIR SEA DIR/SP/G            HT/PER
                 (UTC) (F)     (DEG/KT/KT) (MB)    (FT/S)
64 S DAUPHIN ISL 1700   71 72  300/ 10/ 12 1011.7    4/ 7

$$




USA.gov is the U.S. government's official web portal to all federal, state and local government web resources and services.